User: anonymous   Login
Location: ?
(35.4064°N, 139.3593°E)
Time: 16:49:25
(UTC+00:00)
Language:

ATLAS 5 CENTAUR R/B - Orbit

View from above orbital plane
View from above orbital plane
View from above satellite
View from above satellite

Ground track
Ground track

The orbit data is extracted from the following two-line orbital elements,

1 36869U 10039B   24176.96891059  .00020360  00000-0  12703-2 0  9998
2 36869  20.1608  62.8970 4651474 335.8076   8.0121  6.28115890253110
Epoch (UTC): 24 June 2024 23:15:13
Eccentricity: 0.4651474
inclination: 20.1608°
perigee height: 258 km
apogee height: 11801 km
right ascension of ascending node: 62.8970°
argument of perigee: 335.8076°
revolutions per day: 6.28115890
mean anomaly at epoch: 8.0121°
orbit number at epoch: 25311

The dashed part of the orbit path shows where the satellite is in the earth's shadow,  

DLR